Find Starlink 3609

NORAD ID: 51808 Int'l Des: 2022-017 Owner: SPXS Country: US Constellation: starlink operational
LEOCIRCULAR

Live-Position

3D-Globus wird geladen...

Über Starlink 3609

Beschreibung wird geladen...

Nächste Überflüge

Passes for default location (London). Set your location on the main map for personalized predictions.

Höhenverlauf

Loading altitude history...

Zweizeiliger Elementsatz

1 51808U 22017AS 26104.46040801 .00001069 00000-0 85243-4 0 9992
2 51808 53.2166 178.5400 0001220 88.5778 271.5354 15.08839200229365
Epoch: 14. Apr. 2026 • Age: 15 hours

Aktueller Status

Höhe 542.6 km
Geschwindigkeit 7.60 km/s
Subsatellitenpunkt 39.83°N, 12.94°W
Startdatum 25. Feb. 2022
Alter 4.1 years
Typ internet

Technische Details

Klassifizierung Payload
Masse 297.00 kg
Trockenmasse 275.00 kg
Gesamtmasse 297.00 kg
Länge 0.20 m
Durchmesser 2.80 m
Spannweite 9.00 m
Form Box + pan
Hersteller SPXS
Bus-Typ Starlink
Phasenstatus In Orbit
Besitzer/Staat SPXS/US

Most Searched